Year,Month,Day,Hour,Minute,Value (Times are PST for temperature in C)
2014,08,07,00,00,16.20
2014,08,07,00,01,16.20
2014,08,07,00,02,16.20
2014,08,07,00,03,16.20
2014,08,07,00,04,16.10
2014,08,07,00,05,16.10
2014,08,07,00,06,16.10
2014,08,07,00,07,16.10
2014,08,07,00,08,16.10
2014,08,07,00,09,16.10
2014,08,07,00,10,16.10
2014,08,07,00,11,16.10
2014,08,07,00,12,16.00
2014,08,07,00,13,15.90
2014,08,07,00,14,15.90
2014,08,07,00,15,15.80
2014,08,07,00,16,15.80
2014,08,07,00,17,15.80
2014,08,07,00,18,15.80
2014,08,07,00,19,15.80
2014,08,07,00,20,15.80
2014,08,07,00,21,15.80
2014,08,07,00,22,15.80
2014,08,07,00,23,15.80
2014,08,07,00,24,15.90
2014,08,07,00,25,15.90
2014,08,07,00,26,15.90
2014,08,07,00,27,15.90
2014,08,07,00,28,15.90
2014,08,07,00,29,15.90
2014,08,07,00,30,15.90
2014,08,07,00,31,15.80
2014,08,07,00,32,15.80
2014,08,07,00,33,15.80
2014,08,07,00,34,15.80
2014,08,07,00,35,15.80
2014,08,07,00,36,15.80
2014,08,07,00,37,15.80
2014,08,07,00,38,15.80
2014,08,07,00,39,15.70
2014,08,07,00,40,15.70
2014,08,07,00,41,15.70
2014,08,07,00,42,15.70
2014,08,07,00,43,15.60
2014,08,07,00,44,15.60
2014,08,07,00,45,15.60
2014,08,07,00,46,15.60
2014,08,07,00,47,15.60
2014,08,07,00,48,15.60
2014,08,07,00,49,15.60
2014,08,07,00,50,15.60
2014,08,07,00,51,15.60
2014,08,07,00,52,15.60
2014,08,07,00,53,15.60
2014,08,07,00,54,15.60
2014,08,07,00,55,15.60
2014,08,07,00,56,15.60
2014,08,07,00,57,15.50
2014,08,07,00,58,15.40
2014,08,07,00,59,15.40
2014,08,07,01,00,15.40
2014,08,07,01,01,15.40
2014,08,07,01,02,15.40
2014,08,07,01,03,15.40
2014,08,07,01,04,15.50
2014,08,07,01,05,15.50
2014,08,07,01,06,15.50
2014,08,07,01,07,15.50
2014,08,07,01,08,15.50
2014,08,07,01,09,15.50
2014,08,07,01,10,15.50
2014,08,07,01,11,15.50
2014,08,07,01,12,15.50
2014,08,07,01,13,15.40
2014,08,07,01,14,15.40
2014,08,07,01,15,15.30
2014,08,07,01,16,15.30
2014,08,07,01,17,15.30
2014,08,07,01,18,15.20
2014,08,07,01,19,15.20
2014,08,07,01,20,15.20
2014,08,07,01,21,15.20
2014,08,07,01,22,15.20
2014,08,07,01,23,15.20
2014,08,07,01,24,15.20
2014,08,07,01,25,15.20
2014,08,07,01,26,15.20
2014,08,07,01,27,15.20
2014,08,07,01,28,15.20
2014,08,07,01,29,15.20
2014,08,07,01,30,15.20
2014,08,07,01,31,15.20
2014,08,07,01,32,15.20
2014,08,07,01,33,15.20
2014,08,07,01,34,15.10
2014,08,07,01,35,15.10
2014,08,07,01,36,15.10
2014,08,07,01,37,15.10
2014,08,07,01,38,15.10
2014,08,07,01,39,15.00
2014,08,07,01,40,15.00
2014,08,07,01,41,15.00
2014,08,07,01,42,14.90
2014,08,07,01,43,14.90
2014,08,07,01,44,14.90
2014,08,07,01,45,14.90
2014,08,07,01,46,15.00
2014,08,07,01,47,15.00
2014,08,07,01,48,15.00
2014,08,07,01,49,14.90
2014,08,07,01,50,14.90
2014,08,07,01,51,14.90
2014,08,07,01,52,14.90
2014,08,07,01,53,14.90
2014,08,07,01,54,14.80
2014,08,07,01,55,14.80
2014,08,07,01,56,14.80
2014,08,07,01,57,14.80
2014,08,07,01,58,14.80
2014,08,07,01,59,14.80
2014,08,07,02,00,14.80
2014,08,07,02,01,14.80
2014,08,07,02,02,14.80
2014,08,07,02,03,14.80
2014,08,07,02,04,14.80
2014,08,07,02,05,14.80
2014,08,07,02,06,14.80
2014,08,07,02,07,14.80
2014,08,07,02,08,14.80
2014,08,07,02,09,14.80
2014,08,07,02,10,14.80
2014,08,07,02,11,14.80
2014,08,07,02,12,14.80
2014,08,07,02,13,14.80
2014,08,07,02,14,14.80
2014,08,07,02,15,14.70
2014,08,07,02,16,14.70
2014,08,07,02,17,14.70
2014,08,07,02,18,14.60
2014,08,07,02,19,14.60
2014,08,07,02,20,14.60
2014,08,07,02,21,14.60
2014,08,07,02,22,14.50
2014,08,07,02,23,14.50
2014,08,07,02,24,14.50
2014,08,07,02,25,14.40
2014,08,07,02,26,14.40
2014,08,07,02,27,14.40
2014,08,07,02,28,14.30
2014,08,07,02,29,14.40
2014,08,07,02,30,14.40
2014,08,07,02,31,14.40
2014,08,07,02,32,14.40
2014,08,07,02,33,14.40
2014,08,07,02,34,14.40
2014,08,07,02,35,14.40
2014,08,07,02,36,14.40
2014,08,07,02,37,14.40
2014,08,07,02,38,14.50
2014,08,07,02,39,14.50
2014,08,07,02,40,14.50
2014,08,07,02,41,14.40
2014,08,07,02,42,14.40
2014,08,07,02,43,14.50
2014,08,07,02,44,14.40
2014,08,07,02,45,14.40
2014,08,07,02,46,14.50
2014,08,07,02,47,14.50
2014,08,07,02,48,14.50
2014,08,07,02,49,14.50
2014,08,07,02,50,14.50
2014,08,07,02,51,14.50
2014,08,07,02,52,14.50
2014,08,07,02,53,14.40
2014,08,07,02,54,14.40
2014,08,07,02,55,14.40
2014,08,07,02,56,14.40
2014,08,07,02,57,14.40
2014,08,07,02,58,14.40
2014,08,07,02,59,14.40
2014,08,07,03,00,14.40
2014,08,07,03,01,14.30
2014,08,07,03,02,14.30
2014,08,07,03,03,14.20
2014,08,07,03,04,14.20
2014,08,07,03,05,14.20
2014,08,07,03,06,14.20
2014,08,07,03,07,14.20
2014,08,07,03,08,14.20
2014,08,07,03,09,14.20
2014,08,07,03,10,14.20
2014,08,07,03,11,14.20
2014,08,07,03,12,14.20
2014,08,07,03,13,14.20
2014,08,07,03,14,14.20
2014,08,07,03,15,14.10
2014,08,07,03,16,14.20
2014,08,07,03,17,14.20
2014,08,07,03,18,14.20
2014,08,07,03,19,14.20
2014,08,07,03,20,14.20
2014,08,07,03,21,14.20
2014,08,07,03,22,14.20
2014,08,07,03,23,14.20
2014,08,07,03,24,14.20
2014,08,07,03,25,14.10
2014,08,07,03,26,14.10
2014,08,07,03,27,14.10
2014,08,07,03,28,14.10
2014,08,07,03,29,14.00
2014,08,07,03,30,14.00
2014,08,07,03,31,14.00
2014,08,07,03,32,13.90
2014,08,07,03,33,13.90
2014,08,07,03,34,13.90
2014,08,07,03,35,13.80
2014,08,07,03,36,13.80
2014,08,07,03,37,13.90
2014,08,07,03,38,13.90
2014,08,07,03,39,13.80
2014,08,07,03,40,13.80
2014,08,07,03,41,13.80
2014,08,07,03,42,13.80
2014,08,07,03,43,13.80
2014,08,07,03,44,13.80
2014,08,07,03,45,13.80
2014,08,07,03,46,13.70
2014,08,07,03,47,13.70
2014,08,07,03,48,13.70
2014,08,07,03,49,13.70
2014,08,07,03,50,13.70
2014,08,07,03,51,13.70
2014,08,07,03,52,13.70
2014,08,07,03,53,13.70
2014,08,07,03,54,13.70
2014,08,07,03,55,13.60
2014,08,07,03,56,13.60
2014,08,07,03,57,13.60
2014,08,07,03,58,13.60
2014,08,07,03,59,13.60
2014,08,07,04,00,13.60
2014,08,07,04,01,13.60
2014,08,07,04,02,13.50
2014,08,07,04,03,13.50
2014,08,07,04,04,13.40
2014,08,07,04,05,13.40
2014,08,07,04,06,13.40
2014,08,07,04,07,13.40
2014,08,07,04,08,13.30
2014,08,07,04,09,13.30
2014,08,07,04,10,13.30
2014,08,07,04,11,13.30
2014,08,07,04,12,13.20
2014,08,07,04,13,13.20
2014,08,07,04,14,13.20
2014,08,07,04,15,13.20
2014,08,07,04,16,13.20
2014,08,07,04,17,13.20
2014,08,07,04,18,13.20
2014,08,07,04,19,13.20
2014,08,07,04,20,13.20
2014,08,07,04,21,13.20
2014,08,07,04,22,13.20
2014,08,07,04,23,13.20
2014,08,07,04,24,13.20
2014,08,07,04,25,13.20
2014,08,07,04,26,13.10
2014,08,07,04,27,13.10
2014,08,07,04,28,13.10
2014,08,07,04,29,13.10
2014,08,07,04,30,13.10
2014,08,07,04,31,13.10
2014,08,07,04,32,13.10
2014,08,07,04,33,13.10
2014,08,07,04,34,13.10
2014,08,07,04,35,13.10
2014,08,07,04,36,13.10
2014,08,07,04,37,13.10
2014,08,07,04,38,13.10
2014,08,07,04,39,13.10
2014,08,07,04,40,13.10
2014,08,07,04,41,13.10
2014,08,07,04,42,13.10
2014,08,07,04,43,13.10
2014,08,07,04,44,13.10
2014,08,07,04,45,13.10
2014,08,07,04,46,13.10
2014,08,07,04,47,13.10
2014,08,07,04,48,13.10
2014,08,07,04,49,13.10
2014,08,07,04,50,13.10
2014,08,07,04,51,13.10
2014,08,07,04,52,13.10
2014,08,07,04,53,13.10
2014,08,07,04,54,13.10
2014,08,07,04,55,13.10
2014,08,07,04,56,13.10
2014,08,07,04,57,13.10
2014,08,07,04,58,13.10
2014,08,07,04,59,13.10
2014,08,07,05,00,13.10
2014,08,07,05,01,13.10
2014,08,07,05,02,13.00
2014,08,07,05,03,13.00
2014,08,07,05,04,13.00
2014,08,07,05,05,13.00
2014,08,07,05,06,13.00
2014,08,07,05,07,13.00
2014,08,07,05,08,13.10
2014,08,07,05,09,13.10
2014,08,07,05,10,13.10
2014,08,07,05,11,13.10
2014,08,07,05,12,13.10
2014,08,07,05,13,13.10
2014,08,07,05,14,13.10
2014,08,07,05,15,13.10
2014,08,07,05,16,13.10
2014,08,07,05,17,13.10
2014,08,07,05,18,13.10
2014,08,07,05,19,13.10
2014,08,07,05,20,13.10
2014,08,07,05,21,13.10
2014,08,07,05,22,13.10
2014,08,07,05,23,13.10
2014,08,07,05,24,13.10
2014,08,07,05,25,13.10
2014,08,07,05,26,13.10
2014,08,07,05,27,13.10
2014,08,07,05,28,13.00
2014,08,07,05,29,13.00
2014,08,07,05,30,13.00
2014,08,07,05,31,13.00
2014,08,07,05,32,13.00
2014,08,07,05,33,13.00
2014,08,07,05,34,13.00
2014,08,07,05,35,13.10
2014,08,07,05,36,13.10
2014,08,07,05,37,13.10
2014,08,07,05,38,13.10
2014,08,07,05,39,13.10
2014,08,07,05,40,13.10
2014,08,07,05,41,13.20
2014,08,07,05,42,13.20
2014,08,07,05,43,13.10
2014,08,07,05,44,13.10
2014,08,07,05,45,13.10
2014,08,07,05,46,13.10
2014,08,07,05,47,13.10
2014,08,07,05,48,13.10
2014,08,07,05,49,13.10
2014,08,07,05,50,13.10
2014,08,07,05,51,13.10
2014,08,07,05,52,13.10
2014,08,07,05,53,13.10
2014,08,07,05,54,13.10
2014,08,07,05,55,13.10
2014,08,07,05,56,13.10
2014,08,07,05,57,13.10
2014,08,07,05,58,13.10
2014,08,07,05,59,13.00
2014,08,07,06,00,13.00
2014,08,07,06,01,13.00
2014,08,07,06,02,13.00
2014,08,07,06,03,12.90
2014,08,07,06,04,12.90
2014,08,07,06,05,12.90
2014,08,07,06,06,12.90
2014,08,07,06,07,12.90
2014,08,07,06,08,12.90
2014,08,07,06,09,12.80
2014,08,07,06,10,12.80
2014,08,07,06,11,12.80
2014,08,07,06,12,12.80
2014,08,07,06,13,12.80
2014,08,07,06,14,12.80
2014,08,07,06,15,12.80
2014,08,07,06,16,12.70
2014,08,07,06,17,12.70
2014,08,07,06,18,12.70
2014,08,07,06,19,12.70
2014,08,07,06,20,12.70
2014,08,07,06,21,12.70
2014,08,07,06,22,12.70
2014,08,07,06,23,12.70
2014,08,07,06,24,12.80
2014,08,07,06,25,12.80
2014,08,07,06,26,12.80
2014,08,07,06,27,12.80
2014,08,07,06,28,12.80
2014,08,07,06,29,12.80
2014,08,07,06,30,12.80
2014,08,07,06,31,12.80
2014,08,07,06,32,12.80
2014,08,07,06,33,12.80
2014,08,07,06,34,12.90
2014,08,07,06,35,12.90
2014,08,07,06,36,12.90
2014,08,07,06,37,12.90
2014,08,07,06,38,12.90
2014,08,07,06,39,12.90
2014,08,07,06,40,13.00
2014,08,07,06,41,13.00
2014,08,07,06,42,13.00
2014,08,07,06,43,13.00
2014,08,07,06,44,13.10
2014,08,07,06,45,13.10
2014,08,07,06,46,13.10
2014,08,07,06,47,13.10
2014,08,07,06,48,13.20
2014,08,07,06,49,13.20
2014,08,07,06,50,13.20
2014,08,07,06,51,13.20
2014,08,07,06,52,13.20
2014,08,07,06,53,13.30
2014,08,07,06,54,13.30
2014,08,07,06,55,13.40
2014,08,07,06,56,13.40
2014,08,07,06,57,13.40
2014,08,07,06,58,13.50
2014,08,07,06,59,13.50
2014,08,07,07,00,13.60
2014,08,07,07,01,13.60
2014,08,07,07,02,13.60
2014,08,07,07,03,13.70
2014,08,07,07,04,13.70
2014,08,07,07,05,13.70
2014,08,07,07,06,13.70
2014,08,07,07,07,13.80
2014,08,07,07,08,13.80
2014,08,07,07,09,13.90
2014,08,07,07,10,13.90
2014,08,07,07,11,13.90
2014,08,07,07,12,13.90
2014,08,07,07,13,14.00
2014,08,07,07,14,14.00
2014,08,07,07,15,14.10
2014,08,07,07,16,14.10
2014,08,07,07,17,14.10
2014,08,07,07,18,14.20
2014,08,07,07,19,14.20
2014,08,07,07,20,14.30
2014,08,07,07,21,14.30
2014,08,07,07,22,14.30
2014,08,07,07,23,14.40
2014,08,07,07,24,14.40
2014,08,07,07,25,14.40
2014,08,07,07,26,14.50
2014,08,07,07,27,14.50
2014,08,07,07,28,14.50
2014,08,07,07,29,14.60
2014,08,07,07,30,14.60
2014,08,07,07,31,14.70
2014,08,07,07,32,14.70
2014,08,07,07,33,14.80
2014,08,07,07,34,14.80
2014,08,07,07,35,14.80
2014,08,07,07,36,14.90
2014,08,07,07,37,14.90
2014,08,07,07,38,15.00
2014,08,07,07,39,15.00
2014,08,07,07,40,15.10
2014,08,07,07,41,15.10
2014,08,07,07,42,15.20
2014,08,07,07,43,15.20
2014,08,07,07,44,15.30
2014,08,07,07,45,15.30
2014,08,07,07,46,15.40
2014,08,07,07,47,15.40
2014,08,07,07,48,15.50
2014,08,07,07,49,15.50
2014,08,07,07,50,15.60
2014,08,07,07,51,15.60
2014,08,07,07,52,15.60
2014,08,07,07,53,15.70
2014,08,07,07,54,15.70
2014,08,07,07,55,15.70
2014,08,07,07,56,15.70
2014,08,07,07,57,15.70
2014,08,07,07,58,15.70
2014,08,07,07,59,15.70
2014,08,07,08,00,15.70
2014,08,07,08,01,15.70
2014,08,07,08,02,15.80
2014,08,07,08,03,15.80
2014,08,07,08,04,15.80
2014,08,07,08,05,15.80
2014,08,07,08,06,15.80
2014,08,07,08,07,15.90
2014,08,07,08,08,15.90
2014,08,07,08,09,16.00
2014,08,07,08,10,16.00
2014,08,07,08,11,16.10
2014,08,07,08,12,16.10
2014,08,07,08,13,16.20
2014,08,07,08,14,16.20
2014,08,07,08,15,16.30
2014,08,07,08,16,16.30
2014,08,07,08,17,16.40
2014,08,07,08,18,16.40
2014,08,07,08,19,16.50
2014,08,07,08,20,16.50
2014,08,07,08,21,16.50
2014,08,07,08,22,16.50
2014,08,07,08,23,16.50
2014,08,07,08,24,16.50
2014,08,07,08,25,16.50
2014,08,07,08,26,16.60
2014,08,07,08,27,16.60
2014,08,07,08,28,16.60
2014,08,07,08,29,16.60
2014,08,07,08,30,16.60
2014,08,07,08,31,16.70
2014,08,07,08,32,16.70
2014,08,07,08,33,16.70
2014,08,07,08,34,16.60
2014,08,07,08,35,16.60
2014,08,07,08,36,16.60
2014,08,07,08,37,16.60
2014,08,07,08,38,16.70
2014,08,07,08,39,16.70
2014,08,07,08,40,16.70
2014,08,07,08,41,16.70
2014,08,07,08,42,16.70
2014,08,07,08,43,16.80
2014,08,07,08,44,16.80
2014,08,07,08,45,16.80
2014,08,07,08,46,16.90
2014,08,07,08,47,16.90
2014,08,07,08,48,16.90
2014,08,07,08,49,16.90
2014,08,07,08,50,16.90
2014,08,07,08,51,16.90
2014,08,07,08,52,17.00
2014,08,07,08,53,17.00
2014,08,07,08,54,17.00
2014,08,07,08,55,17.00
2014,08,07,08,56,17.00
2014,08,07,08,57,17.00
2014,08,07,08,58,17.10
2014,08,07,08,59,17.10
2014,08,07,09,00,17.10
2014,08,07,09,01,17.10
2014,08,07,09,02,17.10
2014,08,07,09,03,17.10
2014,08,07,09,04,17.10
2014,08,07,09,05,17.10
2014,08,07,09,06,17.10
2014,08,07,09,07,17.10
2014,08,07,09,08,17.10
2014,08,07,09,09,17.10
2014,08,07,09,10,17.20
2014,08,07,09,11,17.20
2014,08,07,09,12,17.20
2014,08,07,09,13,17.20
2014,08,07,09,14,17.20
2014,08,07,09,15,17.20
2014,08,07,09,16,17.20
2014,08,07,09,17,17.20
2014,08,07,09,18,17.20
2014,08,07,09,19,17.20
2014,08,07,09,20,17.10
2014,08,07,09,21,17.10
2014,08,07,09,22,17.10
2014,08,07,09,23,17.10
2014,08,07,09,24,17.10
2014,08,07,09,25,17.10
2014,08,07,09,26,17.10
2014,08,07,09,27,17.10
2014,08,07,09,28,17.00
2014,08,07,09,29,17.00
2014,08,07,09,30,17.00
2014,08,07,09,31,17.00
2014,08,07,09,32,17.00
2014,08,07,09,33,17.10
2014,08,07,09,34,17.10
2014,08,07,09,35,17.10
2014,08,07,09,36,17.10
2014,08,07,09,37,17.10
2014,08,07,09,38,17.20
2014,08,07,09,39,17.20
2014,08,07,09,40,17.20
2014,08,07,09,41,17.20
2014,08,07,09,42,17.20
2014,08,07,09,43,17.20
2014,08,07,09,44,17.30
2014,08,07,09,45,17.30
2014,08,07,09,46,17.40
2014,08,07,09,47,17.40
2014,08,07,09,48,17.50
2014,08,07,09,49,17.60
2014,08,07,09,50,17.70
2014,08,07,09,51,17.70
2014,08,07,09,52,17.70
2014,08,07,09,53,17.70
2014,08,07,09,54,17.70
2014,08,07,09,55,17.60
2014,08,07,09,56,17.50
2014,08,07,09,57,17.40
2014,08,07,09,58,17.30
2014,08,07,09,59,17.30
2014,08,07,10,00,17.20
2014,08,07,10,01,17.20
2014,08,07,10,02,17.10
2014,08,07,10,03,17.10
2014,08,07,10,04,17.10
2014,08,07,10,05,17.00
2014,08,07,10,06,16.90
2014,08,07,10,07,16.90
2014,08,07,10,08,16.90
2014,08,07,10,09,16.90
2014,08,07,10,10,16.90
2014,08,07,10,11,16.80
2014,08,07,10,12,16.90
2014,08,07,10,13,16.90
2014,08,07,10,14,16.90
2014,08,07,10,15,16.80
2014,08,07,10,16,16.90
2014,08,07,10,17,16.90
2014,08,07,10,18,17.00
2014,08,07,10,19,17.00
2014,08,07,10,20,17.00
2014,08,07,10,21,17.00
2014,08,07,10,22,17.10
2014,08,07,10,23,17.10
2014,08,07,10,24,17.20
2014,08,07,10,25,17.20
2014,08,07,10,26,17.20
2014,08,07,10,27,17.20
2014,08,07,10,28,17.20
2014,08,07,10,29,17.30
2014,08,07,10,30,17.40
2014,08,07,10,31,17.50
2014,08,07,10,32,17.50
2014,08,07,10,33,17.60
2014,08,07,10,34,17.70
2014,08,07,10,35,17.70
2014,08,07,10,36,17.70
2014,08,07,10,37,17.60
2014,08,07,10,38,17.60
2014,08,07,10,39,17.50
2014,08,07,10,40,17.50
2014,08,07,10,41,17.50
2014,08,07,10,42,17.50
2014,08,07,10,43,17.50
2014,08,07,10,44,17.50
2014,08,07,10,45,17.50
2014,08,07,10,46,17.40
2014,08,07,10,47,17.40
2014,08,07,10,48,17.40
2014,08,07,10,49,17.40
2014,08,07,10,50,17.50
2014,08,07,10,51,17.50
2014,08,07,10,52,17.60
2014,08,07,10,53,17.60
2014,08,07,10,54,17.60
2014,08,07,10,55,17.70
2014,08,07,10,56,17.70
2014,08,07,10,57,17.70
2014,08,07,10,58,17.70
2014,08,07,10,59,17.70
2014,08,07,11,00,17.80
2014,08,07,11,01,17.70
2014,08,07,11,02,17.70
2014,08,07,11,03,17.80
2014,08,07,11,04,17.80
2014,08,07,11,05,17.90
2014,08,07,11,06,18.00
2014,08,07,11,07,18.10
2014,08,07,11,08,18.20
2014,08,07,11,09,18.20
2014,08,07,11,10,18.10
2014,08,07,11,11,18.10
2014,08,07,11,12,18.10
2014,08,07,11,13,18.20
2014,08,07,11,14,18.20
2014,08,07,11,15,18.30
2014,08,07,11,16,18.30
2014,08,07,11,17,18.30
2014,08,07,11,18,18.40
2014,08,07,11,19,18.40
2014,08,07,11,20,18.40
2014,08,07,11,21,18.40
2014,08,07,11,22,18.40
2014,08,07,11,23,18.50
2014,08,07,11,24,18.50
2014,08,07,11,25,18.50
2014,08,07,11,26,18.50
2014,08,07,11,27,18.40
2014,08,07,11,28,18.30
2014,08,07,11,29,18.30
2014,08,07,11,30,18.30
2014,08,07,11,31,18.30
2014,08,07,11,32,18.30
2014,08,07,11,33,18.20
2014,08,07,11,34,18.10
2014,08,07,11,35,18.10
2014,08,07,11,36,18.00
2014,08,07,11,37,17.90
2014,08,07,11,38,17.90
2014,08,07,11,39,17.80
2014,08,07,11,40,17.80
2014,08,07,11,41,17.80
2014,08,07,11,42,17.90
2014,08,07,11,43,18.00
2014,08,07,11,44,18.10
2014,08,07,11,45,18.20
2014,08,07,11,46,18.30
2014,08,07,11,47,18.40
2014,08,07,11,48,18.50
2014,08,07,11,49,18.50
2014,08,07,11,50,18.60
2014,08,07,11,51,18.60
2014,08,07,11,52,18.70
2014,08,07,11,53,18.80
2014,08,07,11,54,18.80
2014,08,07,11,55,18.80
2014,08,07,11,56,18.80
2014,08,07,11,57,18.80
2014,08,07,11,58,18.90
2014,08,07,11,59,19.00
2014,08,07,12,00,19.00
2014,08,07,12,01,19.10
2014,08,07,12,02,19.00
2014,08,07,12,03,18.90
2014,08,07,12,04,18.80
2014,08,07,12,05,18.80
2014,08,07,12,06,18.80
2014,08,07,12,07,18.80
2014,08,07,12,08,18.80
2014,08,07,12,09,18.80
2014,08,07,12,10,18.90
2014,08,07,12,11,18.90
2014,08,07,12,12,18.80
2014,08,07,12,13,18.80
2014,08,07,12,14,18.80
2014,08,07,12,15,18.80
2014,08,07,12,16,18.80
2014,08,07,12,17,18.80
2014,08,07,12,18,18.70
2014,08,07,12,19,18.70
2014,08,07,12,20,18.80
2014,08,07,12,21,18.80
2014,08,07,12,22,18.80
2014,08,07,12,23,18.80
2014,08,07,12,24,18.90
2014,08,07,12,25,18.90
2014,08,07,12,26,19.00
2014,08,07,12,27,19.10
2014,08,07,12,28,19.10
2014,08,07,12,29,19.10
2014,08,07,12,30,19.10
2014,08,07,12,31,19.10
2014,08,07,12,32,19.10
2014,08,07,12,33,19.10
2014,08,07,12,34,19.20
2014,08,07,12,35,19.30
2014,08,07,12,36,19.40
2014,08,07,12,37,19.50
2014,08,07,12,38,19.60
2014,08,07,12,39,19.70
2014,08,07,12,40,19.80
2014,08,07,12,41,19.80
2014,08,07,12,42,19.90
2014,08,07,12,43,19.90
2014,08,07,12,44,19.90
2014,08,07,12,45,19.90
2014,08,07,12,46,19.90
2014,08,07,12,47,19.90
2014,08,07,12,48,20.00
2014,08,07,12,49,20.00
2014,08,07,12,50,20.00
2014,08,07,12,51,20.10
2014,08,07,12,52,20.10
2014,08,07,12,53,20.20
2014,08,07,12,54,20.20
2014,08,07,12,55,20.20
2014,08,07,12,56,20.20
2014,08,07,12,57,20.30
2014,08,07,12,58,20.30
2014,08,07,12,59,20.40
2014,08,07,13,00,20.40
2014,08,07,13,01,20.40
2014,08,07,13,02,20.50
2014,08,07,13,03,20.50
2014,08,07,13,04,20.60
2014,08,07,13,05,20.60
2014,08,07,13,06,20.60
2014,08,07,13,07,20.60
2014,08,07,13,08,20.60
2014,08,07,13,09,20.50
2014,08,07,13,10,20.50
2014,08,07,13,11,20.50
2014,08,07,13,12,20.50
2014,08,07,13,13,20.60
2014,08,07,13,14,20.60
2014,08,07,13,15,20.70
2014,08,07,13,16,20.70
2014,08,07,13,17,20.70
2014,08,07,13,18,20.70
2014,08,07,13,19,20.70
2014,08,07,13,20,20.70
2014,08,07,13,21,20.70
2014,08,07,13,22,20.80
2014,08,07,13,23,20.80
2014,08,07,13,24,20.80
2014,08,07,13,25,20.90
2014,08,07,13,26,20.80
2014,08,07,13,27,20.80
2014,08,07,13,28,20.80
2014,08,07,13,29,20.80
2014,08,07,13,30,20.90
2014,08,07,13,31,20.90
2014,08,07,13,32,20.90
2014,08,07,13,33,20.90
2014,08,07,13,34,20.90
2014,08,07,13,35,20.90
2014,08,07,13,36,20.90
2014,08,07,13,37,20.90
2014,08,07,13,38,20.90
2014,08,07,13,39,20.90
2014,08,07,13,40,20.90
2014,08,07,13,41,20.90
2014,08,07,13,42,20.90
2014,08,07,13,43,21.00
2014,08,07,13,44,21.00
2014,08,07,13,45,21.10
2014,08,07,13,46,21.20
2014,08,07,13,47,21.30
2014,08,07,13,48,21.30
2014,08,07,13,49,21.20
2014,08,07,13,50,21.20
2014,08,07,13,51,21.20
2014,08,07,13,52,21.30
2014,08,07,13,53,21.30
2014,08,07,13,54,21.40
2014,08,07,13,55,21.40
2014,08,07,13,56,21.50
2014,08,07,13,57,21.60
2014,08,07,13,58,21.60
2014,08,07,13,59,21.70
2014,08,07,14,00,21.70
2014,08,07,14,01,21.70
2014,08,07,14,02,21.70
2014,08,07,14,03,21.70
2014,08,07,14,04,21.80
2014,08,07,14,05,21.90
2014,08,07,14,06,22.00
2014,08,07,14,07,22.10
2014,08,07,14,08,22.20
2014,08,07,14,09,22.30
2014,08,07,14,10,22.40
2014,08,07,14,11,22.50
2014,08,07,14,12,22.50
2014,08,07,14,13,22.50
2014,08,07,14,14,22.50
2014,08,07,14,15,22.40
2014,08,07,14,16,22.40
2014,08,07,14,17,22.40
2014,08,07,14,18,22.30
2014,08,07,14,19,22.30
2014,08,07,14,20,22.40
2014,08,07,14,21,22.40
2014,08,07,14,22,22.50
2014,08,07,14,23,22.60
2014,08,07,14,24,22.70
2014,08,07,14,25,22.80
2014,08,07,14,26,22.80
2014,08,07,14,27,22.90
2014,08,07,14,28,23.00
2014,08,07,14,29,23.10
2014,08,07,14,30,23.10
2014,08,07,14,31,23.20
2014,08,07,14,32,23.20
2014,08,07,14,33,23.30
2014,08,07,14,34,23.30
2014,08,07,14,35,23.40
2014,08,07,14,36,23.40
2014,08,07,14,37,23.40
2014,08,07,14,38,23.40
2014,08,07,14,39,23.40
2014,08,07,14,40,23.40
2014,08,07,14,41,23.40
2014,08,07,14,42,23.40
2014,08,07,14,43,23.40
2014,08,07,14,44,23.50
2014,08,07,14,45,23.50
2014,08,07,14,46,23.60
2014,08,07,14,47,23.60
2014,08,07,14,48,23.60
2014,08,07,14,49,23.60
2014,08,07,14,50,23.40
2014,08,07,14,51,23.40
2014,08,07,14,52,23.30
2014,08,07,14,53,23.30
2014,08,07,14,54,23.20
2014,08,07,14,55,23.20
2014,08,07,14,56,23.20
2014,08,07,14,57,23.20
2014,08,07,14,58,23.30
2014,08,07,14,59,23.30
2014,08,07,15,00,23.40
2014,08,07,15,01,23.40
2014,08,07,15,02,23.40
2014,08,07,15,03,23.20
2014,08,07,15,04,23.20
2014,08,07,15,05,23.20
2014,08,07,15,06,23.30
2014,08,07,15,07,23.40
2014,08,07,15,08,23.50
2014,08,07,15,09,23.40
2014,08,07,15,10,23.40
2014,08,07,15,11,23.40
2014,08,07,15,12,23.30
2014,08,07,15,13,23.20
2014,08,07,15,14,23.20
2014,08,07,15,15,23.20
2014,08,07,15,16,23.20
2014,08,07,15,17,23.20
2014,08,07,15,18,23.20
2014,08,07,15,19,23.20
2014,08,07,15,20,23.30
2014,08,07,15,21,23.40
2014,08,07,15,22,23.50
2014,08,07,15,23,23.60
2014,08,07,15,24,23.70
2014,08,07,15,25,23.70
2014,08,07,15,26,23.80
2014,08,07,15,27,23.80
2014,08,07,15,28,23.90
2014,08,07,15,29,24.00
2014,08,07,15,30,24.00
2014,08,07,15,31,24.00
2014,08,07,15,32,24.00
2014,08,07,15,33,24.00
2014,08,07,15,34,24.00
2014,08,07,15,35,24.00
2014,08,07,15,36,24.10
2014,08,07,15,37,24.10
2014,08,07,15,38,24.20
2014,08,07,15,39,24.20
2014,08,07,15,40,24.20
2014,08,07,15,41,24.20
2014,08,07,15,42,24.20
2014,08,07,15,43,24.10
2014,08,07,15,44,24.10
2014,08,07,15,45,24.00
2014,08,07,15,46,23.90
2014,08,07,15,47,23.90
2014,08,07,15,48,23.90
2014,08,07,15,49,24.00
2014,08,07,15,50,23.90
2014,08,07,15,51,23.90
2014,08,07,15,52,23.80
2014,08,07,15,53,23.80
2014,08,07,15,54,23.90
2014,08,07,15,55,23.90
2014,08,07,15,56,23.90
2014,08,07,15,57,24.00
2014,08,07,15,58,24.10
2014,08,07,15,59,24.20
2014,08,07,16,00,24.20
2014,08,07,16,01,24.30
2014,08,07,16,02,24.30
2014,08,07,16,03,24.30
2014,08,07,16,04,24.20
2014,08,07,16,05,24.10
2014,08,07,16,06,24.00
2014,08,07,16,07,23.90
2014,08,07,16,08,23.80
2014,08,07,16,09,23.80
2014,08,07,16,10,23.70
2014,08,07,16,11,23.70
2014,08,07,16,12,23.60
2014,08,07,16,13,23.60
2014,08,07,16,14,23.60
2014,08,07,16,15,23.60
2014,08,07,16,16,23.60
2014,08,07,16,17,23.50
2014,08,07,16,18,23.40
2014,08,07,16,19,23.40
2014,08,07,16,20,23.40
2014,08,07,16,21,23.50
2014,08,07,16,22,23.70
2014,08,07,16,23,23.80
2014,08,07,16,24,23.90
2014,08,07,16,25,23.90
2014,08,07,16,26,23.90
2014,08,07,16,27,23.90
2014,08,07,16,28,23.80
2014,08,07,16,29,23.80
2014,08,07,16,30,23.70
2014,08,07,16,31,23.50
2014,08,07,16,32,23.50
2014,08,07,16,33,23.40
2014,08,07,16,34,23.30
2014,08,07,16,35,23.20
2014,08,07,16,36,23.10
2014,08,07,16,37,23.00
2014,08,07,16,38,23.00
2014,08,07,16,39,23.00
2014,08,07,16,40,22.90
2014,08,07,16,41,22.90
2014,08,07,16,42,22.90
2014,08,07,16,43,23.00
2014,08,07,16,44,23.00
2014,08,07,16,45,23.10
2014,08,07,16,46,23.10
2014,08,07,16,47,23.10
2014,08,07,16,48,23.10
2014,08,07,16,49,23.10
2014,08,07,16,50,23.10
2014,08,07,16,51,23.10
2014,08,07,16,52,23.10
2014,08,07,16,53,23.10
2014,08,07,16,54,23.10
2014,08,07,16,55,23.10
2014,08,07,16,56,23.10
2014,08,07,16,57,23.00
2014,08,07,16,58,23.00
2014,08,07,16,59,23.00
2014,08,07,17,00,22.90
2014,08,07,17,01,22.90
2014,08,07,17,02,22.90
2014,08,07,17,03,22.80
2014,08,07,17,04,22.80
2014,08,07,17,05,22.80
2014,08,07,17,06,22.70
2014,08,07,17,07,22.70
2014,08,07,17,08,22.70
2014,08,07,17,09,22.70
2014,08,07,17,10,22.70
2014,08,07,17,11,22.70
2014,08,07,17,12,22.70
2014,08,07,17,13,22.70
2014,08,07,17,14,22.70
2014,08,07,17,15,22.70
2014,08,07,17,16,22.80
2014,08,07,17,17,22.80
2014,08,07,17,18,22.80
2014,08,07,17,19,22.80